^^
B2 Weather Station Historical Data
Daily Summary for January 2, 2017 Units:  English    Metric   Both
Daily Weekly Monthly Yearly Custom
  High: Low: Average:
Temperature: 40.2 °F 25.9 °F 35.6 °F
Dew Point: 38.6 °F 22.7 °F 33.6 °F
Humidity: 97% 85% 92%
Wind Speed: 11.5mph 0.0mph 3.7mph
Wind Gust: 11.5mph - -
Wind- - East
Pressure: 30.16 in 29.86 in -
Precipitation: 0.24 in    
Historical Graphs
 
 
Tabular Data for January 2, 2017
Time Temperature Dew Point Pressure Wind Wind Speed Wind Gust Humidity Rainfall Rate (Hourly) solar
00:00 28.2 °F 24.3 °F 30.14 in Calm     85% 0.00 in 0.0 W/m2
00:05 27.9 °F 24.3 °F 30.14 in Calm     86% 0.00 in 0.0 W/m2
00:10 27.8 °F 24.2 °F 30.14 in Calm     86% 0.00 in 0.0 W/m2
00:15 27.7 °F 24.1 °F 30.14 in Calm     86% 0.00 in 0.0 W/m2
00:20 27.7 °F 24.1 °F 30.14 in Calm     86% 0.00 in 0.0 W/m2
00:25 27.8 °F 24.4 °F 30.14 in Calm     87% 0.00 in 0.0 W/m2
00:30 27.8 °F 24.4 °F 30.13 in Calm     87% 0.00 in 0.0 W/m2
00:35 27.9 °F 24.5 °F 30.14 in Calm     87% 0.00 in 0.0 W/m2
00:40 28.0 °F 24.6 °F 30.14 in Calm     87% 0.00 in 0.0 W/m2
00:45 28.1 °F 24.7 °F 30.14 in Calm     87% 0.00 in 0.0 W/m2
00:50 28.1 °F 24.7 °F 30.15 in Calm     87% 0.00 in 0.0 W/m2
00:55 28.2 °F 24.8 °F 30.15 in Calm     87% 0.00 in 0.0 W/m2
01:00 28.3 °F 24.9 °F 30.15 in Calm     87% 0.00 in 0.0 W/m2
01:05 28.5 °F 25.1 °F 30.15 in Calm     87% 0.00 in 0.0 W/m2
01:10 28.5 °F 24.8 °F 30.15 in Calm     86% 0.00 in 0.0 W/m2
01:15 28.4 °F 24.7 °F 30.15 in Calm     86% 0.00 in 0.0 W/m2
01:20 28.4 °F 24.7 °F 30.14 in Calm     86% 0.00 in 0.0 W/m2
01:25 28.3 °F 24.6 °F 30.15 in Calm     86% 0.00 in 0.0 W/m2
01:30 28.1 °F 24.5 °F 30.15 in Calm     86% 0.00 in 0.0 W/m2
01:35 27.8 °F 23.9 °F 30.15 in Calm     85% 0.00 in 0.0 W/m2
01:40 27.2 °F 23.3 °F 30.16 in Calm     85% 0.00 in 0.0 W/m2
01:45 26.9 °F 23.3 °F 30.15 in Calm     86% 0.00 in 0.0 W/m2
01:50 26.6 °F 23.3 °F 30.15 in Calm     87% 0.00 in 0.0 W/m2
01:55 26.2 °F 22.9 °F 30.16 in Calm     87% 0.00 in 0.0 W/m2
02:00 26.0 °F 22.7 °F 30.16 in Calm     87% 0.00 in 0.0 W/m2
02:05 25.9 °F 22.8 °F 30.16 in Calm     88% 0.00 in 0.0 W/m2
02:10 26.0 °F 23.2 °F 30.16 in Calm     89% 0.00 in 0.0 W/m2
02:15 26.3 °F 23.8 °F 30.15 in Calm     90% 0.00 in 0.0 W/m2
02:20 26.9 °F 24.6 °F 30.15 in ENE 2.0 mph 2.0 mph 91% 0.00 in 0.0 W/m2
02:25 27.5 °F 25.2 °F 30.15 in Calm     91% 0.00 in 0.0 W/m2
02:30 28.0 °F 25.7 °F 30.16 in ENE 4.0 mph 4.0 mph 91% 0.00 in 0.0 W/m2
02:35 28.6 °F 26.3 °F 30.15 in ENE 3.5 mph 3.5 mph 91% 0.00 in 0.0 W/m2
02:40 29.1 °F 26.8 °F 30.15 in ENE 3.5 mph 3.5 mph 91% 0.00 in 0.0 W/m2
02:45 29.5 °F 26.9 °F 30.15 in ENE 3.5 mph 3.5 mph 90% 0.00 in 0.0 W/m2
02:50 29.8 °F 27.2 °F 30.15 in ENE 4.0 mph 4.0 mph 90% 0.00 in 0.0 W/m2
02:55 30.0 °F 27.4 °F 30.15 in ENE 3.5 mph 3.5 mph 90% 0.00 in 0.0 W/m2
03:00 30.2 °F 27.3 °F 30.14 in ENE 4.0 mph 4.0 mph 89% 0.00 in 0.0 W/m2
03:05 30.2 °F 27.3 °F 30.14 in ENE 4.6 mph 4.6 mph 89% 0.00 in 0.0 W/m2
03:10 30.2 °F 27.3 °F 30.14 in ENE 2.3 mph 2.3 mph 89% 0.00 in 0.0 W/m2
03:15 30.3 °F 27.2 °F 30.14 in ENE 4.6 mph 4.6 mph 88% 0.00 in 0.0 W/m2
03:20 30.4 °F 27.3 °F 30.14 in ENE 4.0 mph 4.0 mph 88% 0.00 in 0.0 W/m2
03:25 30.6 °F 27.5 °F 30.14 in ENE 5.0 mph 5.0 mph 88% 0.00 in 0.0 W/m2
03:30 30.7 °F 27.6 °F 30.14 in ENE 3.5 mph 3.5 mph 88% 0.00 in 0.0 W/m2
03:35 30.7 °F 27.6 °F 30.13 in ENE 6.9 mph 6.9 mph 88% 0.00 in 0.0 W/m2
03:40 30.7 °F 27.6 °F 30.13 in ENE 8.1 mph 8.1 mph 88% 0.00 in 0.0 W/m2
03:45 30.7 °F 27.6 °F 30.13 in ENE 3.5 mph 3.5 mph 88% 0.00 in 0.0 W/m2
03:50 30.7 °F 27.6 °F 30.13 in ENE 4.6 mph 4.6 mph 88% 0.00 in 0.0 W/m2
03:55 30.6 °F 27.5 °F 30.14 in ENE 3.5 mph 3.5 mph 88% 0.00 in 0.0 W/m2
04:00 30.7 °F 27.6 °F 30.13 in ENE 3.5 mph 3.5 mph 88% 0.00 in 0.0 W/m2
04:05 30.8 °F 27.7 °F 30.13 in ENE 4.6 mph 4.6 mph 88% 0.00 in 0.0 W/m2
04:10 31.0 °F 27.9 °F 30.13 in ENE 3.5 mph 3.5 mph 88% 0.00 in 0.0 W/m2
04:15 31.2 °F 28.1 °F 30.13 in ENE 6.9 mph 6.9 mph 88% 0.00 in 0.0 W/m2
04:20 31.3 °F 28.2 °F 30.12 in ENE 6.9 mph 6.9 mph 88% 0.00 in 0.0 W/m2
04:25 31.4 °F 28.3 °F 30.12 in ENE 3.5 mph 3.6 mph 88% 0.00 in 0.0 W/m2
04:30 31.5 °F 28.4 °F 30.12 in ENE 4.6 mph 4.6 mph 88% 0.00 in 0.0 W/m2
04:35 31.6 °F 28.5 °F 30.12 in ENE 4.6 mph 4.6 mph 88% 0.00 in 0.0 W/m2
04:40 31.7 °F 28.6 °F 30.12 in ENE 4.6 mph 4.6 mph 88% 0.00 in 0.0 W/m2
04:45 31.8 °F 28.7 °F 30.12 in ENE 5.0 mph 5.0 mph 88% 0.00 in 0.0 W/m2
04:50 31.8 °F 28.9 °F 30.12 in ENE 5.0 mph 5.0 mph 89% 0.00 in 0.0 W/m2
04:55 31.9 °F 29.0 °F 30.12 in ENE 4.0 mph 4.0 mph 89% 0.00 in 0.0 W/m2
05:00 32.0 °F 29.1 °F 30.12 in Calm     89% 0.00 in 0.0 W/m2
05:05 32.1 °F 29.2 °F 30.12 in ENE 3.5 mph 3.5 mph 89% 0.00 in 0.0 W/m2
05:10 32.2 °F 29.3 °F 30.13 in ENE 2.0 mph 2.0 mph 89% 0.00 in 0.0 W/m2
05:15 32.2 °F 29.3 °F 30.13 in ENE 3.5 mph 3.5 mph 89% 0.00 in 0.0 W/m2
05:20 32.3 °F 29.4 °F 30.13 in ENE 2.3 mph 2.3 mph 89% 0.00 in 0.0 W/m2
05:25 32.4 °F 29.5 °F 30.14 in Calm     89% 0.00 in 0.0 W/m2
05:30 32.5 °F 29.6 °F 30.14 in ENE 3.5 mph 3.5 mph 89% 0.00 in 0.0 W/m2
05:35 32.5 °F 29.6 °F 30.14 in ENE 3.5 mph 3.5 mph 89% 0.00 in 0.0 W/m2
05:40 32.6 °F 29.7 °F 30.13 in ENE 3.5 mph 3.5 mph 89% 0.00 in 0.0 W/m2
05:45 32.6 °F 29.7 °F 30.13 in ENE 3.5 mph 3.5 mph 89% 0.00 in 0.0 W/m2
05:50 32.6 °F 29.7 °F 30.13 in ENE 4.0 mph 4.0 mph 89% 0.00 in 0.0 W/m2
05:55 32.7 °F 29.8 °F 30.13 in ENE 4.6 mph 4.6 mph 89% 0.00 in 0.0 W/m2
06:00 32.7 °F 29.8 °F 30.13 in ENE 5.0 mph 5.0 mph 89% 0.00 in 0.0 W/m2
06:05 32.8 °F 29.9 °F 30.13 in ENE 4.6 mph 4.6 mph 89% 0.00 in 0.0 W/m2
06:10 32.9 °F 30.0 °F 30.14 in ENE 3.5 mph 3.5 mph 89% 0.00 in 0.0 W/m2
06:15 32.9 °F 30.0 °F 30.14 in ENE 3.5 mph 3.5 mph 89% 0.00 in 0.0 W/m2
06:20 33.1 °F 29.9 °F 30.14 in ENE 3.5 mph 3.5 mph 88% 0.00 in 0.0 W/m2
06:25 33.1 °F 29.9 °F 30.14 in ENE 3.5 mph 3.5 mph 88% 0.00 in 0.0 W/m2
06:30 33.1 °F 29.9 °F 30.14 in ENE 1.2 mph   88% 0.00 in 0.0 W/m2
06:35 33.2 °F 30.0 °F 30.14 in Calm     88% 0.00 in 0.0 W/m2
06:40 33.2 °F 30.0 °F 30.15 in Calm     88% 0.00 in 0.0 W/m2
06:45 33.2 °F 30.0 °F 30.14 in Calm     88% 0.00 in 0.0 W/m2
06:50 33.2 °F 30.0 °F 30.13 in Calm     88% 0.00 in 0.0 W/m2
06:55 33.2 °F 30.0 °F 30.14 in Calm     88% 0.00 in 0.0 W/m2
07:00 33.2 °F 30.0 °F 30.14 in Calm     88% 0.00 in 0.0 W/m2
07:05 33.3 °F 30.4 °F 30.14 in Calm     89% 0.00 in 0.0 W/m2
07:10 33.3 °F 30.4 °F 30.14 in Calm     89% 0.00 in 0.0 W/m2
07:15 33.3 °F 30.4 °F 30.13 in Calm     89% 0.00 in 0.0 W/m2
07:20 33.4 °F 30.5 °F 30.14 in Calm     89% 0.00 in 0.0 W/m2
07:25 33.5 °F 30.6 °F 30.13 in Calm     89% 0.00 in 0.0 W/m2
07:30 33.6 °F 30.7 °F 30.13 in Calm     89% 0.00 in 0.0 W/m2
07:35 33.7 °F 30.8 °F 30.14 in Calm     89% 0.00 in 5.0 W/m2
07:40 33.9 °F 31.0 °F 30.13 in ENE 3.5 mph   89% 0.00 in 5.0 W/m2
07:45 34.1 °F 31.2 °F 30.13 in East 5.8 mph 5.8 mph 89% 0.00 in 7.0 W/m2
07:50 34.2 °F 31.3 °F 30.13 in East 5.0 mph 5.0 mph 89% 0.00 in 11.0 W/m2
07:55 34.3 °F 31.4 °F 30.13 in East 4.6 mph 4.6 mph 89% 0.00 in 12.0 W/m2
08:00 34.4 °F 31.5 °F 30.14 in East 3.5 mph 3.5 mph 89% 0.00 in 14.0 W/m2
08:05 34.4 °F 31.5 °F 30.14 in East 3.0 mph 3.0 mph 89% 0.00 in 14.0 W/m2
08:10 34.5 °F 31.6 °F 30.13 in East 5.8 mph 5.8 mph 89% 0.00 in 16.0 W/m2
08:15 34.6 °F 31.7 °F 30.13 in East 3.5 mph   89% 0.00 in 23.0 W/m2
08:20 34.7 °F 31.8 °F 30.14 in East 3.5 mph 3.5 mph 89% 0.00 in 21.0 W/m2
08:25 34.7 °F 31.8 °F 30.14 in Calm     89% 0.00 in 21.0 W/m2
08:30 34.9 °F 32.0 °F 30.14 in East 3.5 mph 3.5 mph 89% 0.00 in 30.0 W/m2
08:35 35.0 °F 32.4 °F 30.14 in East 5.0 mph 5.0 mph 90% 0.00 in 37.0 W/m2
08:40 35.1 °F 32.5 °F 30.13 in ESE 6.9 mph 6.9 mph 90% 0.00 in 35.0 W/m2
08:45 35.2 °F 32.6 °F 30.14 in ESE 3.5 mph 3.5 mph 90% 0.00 in 40.0 W/m2
08:50 35.2 °F 32.6 °F 30.13 in ESE 4.6 mph 4.6 mph 90% 0.00 in 39.0 W/m2
08:55 35.3 °F 32.7 °F 30.13 in ESE 3.5 mph 3.5 mph 90% 0.00 in 53.0 W/m2
09:00 35.3 °F 32.7 °F 30.14 in ESE 4.6 mph 4.6 mph 90% 0.00 in 44.0 W/m2
09:01 35.3 °F 32.7 °F 30.14 in ESE 4.6 mph 4.6 mph 90% 0.00 in 46.0 W/m2
09:06 35.4 °F 32.8 °F 30.14 in ESE 5.0 mph 5.0 mph 90% 0.00 in 32.0 W/m2
09:11 35.5 °F 32.9 °F 30.14 in ESE 4.6 mph 4.6 mph 90% 0.00 in 33.0 W/m2
09:16 35.5 °F 32.9 °F 30.13 in ESE 5.0 mph 5.0 mph 90% 0.00 in 53.0 W/m2
09:21 35.5 °F 32.9 °F 30.13 in ESE 8.1 mph 8.1 mph 90% 0.00 in 47.0 W/m2
09:26 35.6 °F 33.2 °F 30.13 in ESE 7.0 mph 7.0 mph 91% 0.00 in 51.0 W/m2
09:31 35.7 °F 33.3 °F 30.11 in ESE 8.0 mph 8.0 mph 91% 0.00 in 88.0 W/m2
09:36 35.8 °F 33.4 °F 30.10 in East 10.4 mph 10.4 mph 91% 0.00 in 79.0 W/m2
09:41 35.9 °F 33.5 °F 30.11 in East 9.2 mph 9.2 mph 91% 0.00 in 81.0 W/m2
09:46 36.0 °F 33.6 °F 30.12 in East 6.9 mph 6.9 mph 91% 0.00 in 69.0 W/m2
09:51 36.1 °F 33.7 °F 30.10 in East 8.1 mph 8.4 mph 91% 0.00 in 91.0 W/m2
09:56 36.2 °F 34.1 °F 30.10 in East 10.0 mph 10.0 mph 92% 0.00 in 113.0 W/m2
10:01 36.4 °F 34.3 °F 30.10 in ESE 8.1 mph 8.1 mph 92% 0.00 in 113.0 W/m2
10:06 36.6 °F 34.5 °F 30.10 in ESE 9.2 mph 9.2 mph 92% 0.00 in 91.0 W/m2
10:11 36.6 °F 34.5 °F 30.09 in East 9.2 mph 9.2 mph 92% 0.00 in 86.0 W/m2
10:16 36.7 °F 34.6 °F 30.10 in East 10.4 mph 10.4 mph 92% 0.00 in 84.0 W/m2
10:22 36.8 °F 34.7 °F 30.09 in ESE 7.0 mph 7.0 mph 92% 0.00 in 72.0 W/m2
10:27 36.9 °F 34.8 °F 30.09 in East 8.1 mph 8.1 mph 92% 0.00 in 79.0 W/m2
10:32 37.0 °F 34.9 °F 30.09 in East 10.4 mph 10.4 mph 92% 0.00 in 111.0 W/m2
10:37 37.1 °F 35.0 °F 30.09 in ESE 10.4 mph 10.4 mph 92% 0.00 in 121.0 W/m2
10:42 37.4 °F 35.3 °F 30.09 in East 9.2 mph 9.2 mph 92% 0.00 in 135.0 W/m2
10:47 37.7 °F 35.6 °F 30.08 in ESE 8.1 mph 8.1 mph 92% 0.00 in 95.0 W/m2
10:52 37.8 °F 35.4 °F 30.08 in ESE 8.1 mph 8.1 mph 91% 0.00 in 83.0 W/m2
10:57 37.9 °F 35.5 °F 30.08 in ESE 8.1 mph 8.1 mph 91% 0.00 in 90.0 W/m2
11:02 38.0 °F 35.6 °F 30.08 in ESE 10.4 mph 10.4 mph 91% 0.00 in 62.0 W/m2
11:07 38.0 °F 35.6 °F 30.09 in ESE 6.9 mph 6.9 mph 91% 0.00 in 56.0 W/m2
11:12 38.1 °F 35.7 °F 30.08 in ESE 9.2 mph 9.2 mph 91% 0.00 in 56.0 W/m2
11:22 38.0 °F 35.9 °F 30.07 in ESE 9.2 mph 9.2 mph 92% 0.00 in 51.0 W/m2
11:27 37.9 °F 35.8 °F 30.06 in East 8.1 mph 8.1 mph 92% 0.00 in 72.0 W/m2
11:32 37.9 °F 36.1 °F 30.03 in East 11.5 mph 11.5 mph 93% 0.00 in 244.0 W/m2
11:37 38.4 °F 36.8 °F 30.03 in East 10.4 mph 10.4 mph 94% 0.00 in 135.0 W/m2
11:42 38.6 °F 37.0 °F 30.02 in East 10.4 mph 10.4 mph 94% 0.00 in 149.0 W/m2
11:47 38.8 °F 37.2 °F 30.03 in ESE 9.2 mph 9.2 mph 94% 0.00 in 142.0 W/m2
11:52 39.3 °F 37.7 °F 30.04 in ESE 7.0 mph 7.0 mph 94% 0.00 in 214.0 W/m2
11:57 39.7 °F 38.1 °F 30.03 in ESE 9.2 mph 9.2 mph 94% 0.00 in 142.0 W/m2
12:02 39.7 °F 38.1 °F 30.03 in SE 8.1 mph 8.1 mph 94% 0.00 in 79.0 W/m2
12:07 39.5 °F 37.6 °F 30.03 in ESE 8.1 mph 8.1 mph 93% 0.00 in 70.0 W/m2
12:12 39.4 °F 37.5 °F 30.02 in ESE 9.2 mph 9.2 mph 93% 0.00 in 84.0 W/m2
12:17 39.5 °F 37.9 °F 30.01 in ESE 6.9 mph 6.9 mph 94% 0.00 in 72.0 W/m2
12:22 39.7 °F 38.1 °F 30.00 in East 8.1 mph 8.1 mph 94% 0.00 in 67.0 W/m2
12:27 39.7 °F 37.8 °F 30.01 in ESE 8.1 mph 8.1 mph 93% 0.00 in 42.0 W/m2
12:32 39.7 °F 37.8 °F 30.01 in ESE 4.6 mph 4.6 mph 93% 0.00 in 33.0 W/m2
12:37 39.8 °F 37.9 °F 30.02 in Calm     93% 0.00 in 37.0 W/m2
12:42 39.8 °F 38.2 °F 30.02 in Calm     94% 0.01 in 32.0 W/m2
12:47 40.0 °F 38.4 °F 30.02 in Calm     94% 0.01 in 44.0 W/m2
12:52 40.1 °F 38.5 °F 30.01 in Calm     94% 0.01 in 49.0 W/m2
12:57 40.2 °F 38.6 °F 30.01 in ESE 2.0 mph 2.0 mph 94% 0.01 in 46.0 W/m2
13:02 40.2 °F 38.6 °F 30.01 in ESE 4.0 mph 4.0 mph 94% 0.01 in 37.0 W/m2
13:07 40.1 °F 38.5 °F 30.00 in ESE 3.5 mph 3.5 mph 94% 0.01 in 53.0 W/m2
13:12 40.0 °F 38.4 °F 30.00 in East 5.8 mph 5.8 mph 94% 0.01 in 58.0 W/m2
13:17 40.0 °F 38.4 °F 30.00 in East 3.5 mph 3.5 mph 94% 0.01 in 63.0 W/m2
13:22 40.1 °F 38.5 °F 30.00 in Calm     94% 0.01 in 42.0 W/m2
13:27 40.2 °F 38.6 °F 30.00 in Calm     94% 0.01 in 42.0 W/m2
13:32 40.2 °F 38.6 °F 30.01 in Calm     94% 0.01 in 42.0 W/m2
13:37 40.1 °F 38.5 °F 30.00 in Calm     94% 0.01 in 44.0 W/m2
13:42 40.0 °F 38.4 °F 30.00 in East 3.5 mph 3.5 mph 94% 0.00 in 46.0 W/m2
13:47 40.0 °F 38.4 °F 29.99 in ENE 3.5 mph 3.5 mph 94% 0.00 in 49.0 W/m2
13:52 40.0 °F 38.4 °F 30.00 in Calm     94% 0.00 in 30.0 W/m2
13:57 40.0 °F 38.4 °F 30.00 in Calm     94% 0.00 in 23.0 W/m2
14:02 39.9 °F 38.3 °F 30.00 in Calm     94% 0.00 in 14.0 W/m2
14:07 39.8 °F 38.2 °F 30.00 in Calm     94% 0.00 in 12.0 W/m2
14:12 39.6 °F 38.0 °F 30.00 in ENE 3.5 mph 3.5 mph 94% 0.00 in 14.0 W/m2
14:17 39.4 °F 37.8 °F 30.00 in ENE 3.5 mph 3.5 mph 94% 0.01 in 23.0 W/m2
14:22 39.3 °F 37.7 °F 29.99 in East 4.6 mph 4.6 mph 94% 0.02 in 19.0 W/m2
14:27 39.3 °F 37.7 °F 29.99 in East 7.0 mph 7.0 mph 94% 0.02 in 16.0 W/m2
14:32 39.3 °F 38.0 °F 29.99 in ESE 4.6 mph 4.6 mph 95% 0.02 in 12.0 W/m2
14:37 39.2 °F 37.9 °F 29.99 in ESE 4.0 mph 4.0 mph 95% 0.03 in 11.0 W/m2
14:42 39.2 °F 37.9 °F 29.99 in ESE 5.0 mph 5.0 mph 95% 0.03 in 7.0 W/m2
14:47 39.1 °F 37.8 °F 29.98 in East 6.9 mph 6.9 mph 95% 0.04 in 7.0 W/m2
14:52 39.1 °F 37.8 °F 29.98 in East 5.8 mph 5.8 mph 95% 0.04 in 7.0 W/m2
14:57 39.0 °F 37.7 °F 29.99 in Calm     95% 0.06 in 5.0 W/m2
15:02 39.0 °F 37.7 °F 29.99 in Calm     95% 0.08 in 9.0 W/m2
15:07 39.0 °F 37.7 °F 30.00 in Calm     95% 0.09 in 7.0 W/m2
15:12 39.0 °F 37.7 °F 30.01 in Calm     95% 0.10 in 0.0 W/m2
15:18 39.2 °F 37.9 °F 30.01 in Calm     95% 0.09 in 0.0 W/m2
15:23 39.2 °F 37.9 °F 30.01 in East 1.2 mph   95% 0.08 in 0.0 W/m2
15:28 39.0 °F 37.7 °F 30.01 in NW 6.0 mph 6.0 mph 95% 0.09 in 0.0 W/m2
15:33 38.9 °F 37.6 °F 30.01 in NW 5.8 mph 5.8 mph 95% 0.10 in 0.0 W/m2
15:38 38.8 °F 37.5 °F 30.00 in NW 4.6 mph 4.6 mph 95% 0.11 in 0.0 W/m2
15:43 38.7 °F 37.4 °F 30.00 in NW 5.8 mph 5.8 mph 95% 0.12 in 0.0 W/m2
15:48 38.6 °F 37.3 °F 29.99 in NW 5.8 mph 5.8 mph 95% 0.12 in 0.0 W/m2
15:53 38.5 °F 37.2 °F 29.99 in NW 3.5 mph 3.5 mph 95% 0.12 in 0.0 W/m2
15:58 38.3 °F 37.0 °F 29.99 in Calm     95% 0.10 in 0.0 W/m2
16:03 38.2 °F 37.2 °F 29.98 in Calm     96% 0.09 in 0.0 W/m2
16:08 38.2 °F 37.2 °F 29.97 in NNW 4.6 mph 4.6 mph 96% 0.10 in 0.0 W/m2
16:13 38.1 °F 37.1 °F 29.97 in NNW 5.0 mph 5.0 mph 96% 0.10 in 0.0 W/m2
16:18 38.1 °F 36.8 °F 29.97 in NNE 5.8 mph 5.8 mph 95% 0.10 in 0.0 W/m2
16:23 38.0 °F 37.0 °F 29.97 in NNE 4.6 mph 4.6 mph 96% 0.11 in 0.0 W/m2
16:28 38.0 °F 37.0 °F 29.97 in NNE 4.6 mph 4.6 mph 96% 0.10 in 0.0 W/m2
16:33 38.0 °F 37.0 °F 29.97 in NNE 3.5 mph 3.5 mph 96% 0.08 in 0.0 W/m2
16:38 38.0 °F 37.0 °F 29.97 in NNE 4.0 mph 4.0 mph 96% 0.07 in 0.0 W/m2
16:43 38.1 °F 37.1 °F 29.98 in Calm     96% 0.06 in 0.0 W/m2
16:48 38.2 °F 37.2 °F 29.98 in Calm     96% 0.05 in 0.0 W/m2
16:53 38.2 °F 37.2 °F 29.97 in NNE 3.5 mph 3.5 mph 96% 0.04 in 0.0 W/m2
16:58 38.0 °F 37.0 °F 29.97 in Calm     96% 0.04 in 0.0 W/m2
17:03 38.0 °F 37.0 °F 29.97 in Calm     96% 0.03 in 0.0 W/m2
17:08 38.1 °F 37.1 °F 29.97 in Calm     96% 0.02 in 0.0 W/m2
17:13 38.0 °F 37.0 °F 29.96 in NNE 3.5 mph 3.5 mph 96% 0.01 in 0.0 W/m2
17:18 37.9 °F 36.9 °F 29.96 in NNE 3.5 mph   96% 0.02 in 0.0 W/m2
17:23 37.9 °F 36.9 °F 29.95 in NNE 4.6 mph 4.6 mph 96% 0.01 in 0.0 W/m2
17:28 37.9 °F 36.9 °F 29.96 in NNE 3.5 mph 3.5 mph 96% 0.01 in 0.0 W/m2
17:33 38.0 °F 37.0 °F 29.95 in NNE 4.0 mph 4.0 mph 96% 0.01 in 0.0 W/m2
17:38 38.2 °F 37.2 °F 29.95 in NE 6.9 mph 6.9 mph 96% 0.02 in 0.0 W/m2
17:43 38.4 °F 37.4 °F 29.95 in ENE 8.1 mph 8.1 mph 96% 0.02 in 0.0 W/m2
17:48 38.5 °F 37.5 °F 29.95 in ENE 5.0 mph 5.0 mph 96% 0.02 in 0.0 W/m2
17:53 38.6 °F 37.6 °F 29.95 in ENE 8.1 mph 8.1 mph 96% 0.02 in 0.0 W/m2
17:58 38.7 °F 37.7 °F 29.94 in ENE 8.1 mph 8.1 mph 96% 0.02 in 0.0 W/m2
18:03 38.7 °F 37.7 °F 29.94 in East 8.1 mph 8.1 mph 96% 0.02 in 0.0 W/m2
18:08 38.7 °F 37.7 °F 29.94 in East 9.2 mph 9.2 mph 96% 0.02 in 0.0 W/m2
18:13 38.8 °F 37.8 °F 29.94 in East 9.2 mph 9.2 mph 96% 0.02 in 0.0 W/m2
18:18 38.9 °F 37.9 °F 29.93 in East 8.1 mph 8.1 mph 96% 0.01 in 0.0 W/m2
18:23 38.9 °F 37.9 °F 29.93 in East 8.1 mph 8.1 mph 96% 0.01 in 0.0 W/m2
18:28 38.8 °F 37.8 °F 29.93 in East 6.9 mph 6.9 mph 96% 0.01 in 0.0 W/m2
18:33 38.6 °F 37.6 °F 29.92 in East 7.0 mph 7.0 mph 96% 0.01 in 0.0 W/m2
18:38 38.5 °F 37.5 °F 29.92 in ENE 8.1 mph 8.1 mph 96% 0.00 in 0.0 W/m2
18:43 38.5 °F 37.5 °F 29.92 in ENE 8.1 mph 8.1 mph 96% 0.00 in 0.0 W/m2
18:48 38.4 °F 37.4 °F 29.92 in ENE 4.6 mph 4.6 mph 96% 0.00 in 0.0 W/m2
18:53 38.6 °F 37.6 °F 29.92 in ENE 6.9 mph 6.9 mph 96% 0.00 in 0.0 W/m2
18:58 38.6 °F 37.6 °F 29.93 in ENE 4.6 mph 4.6 mph 96% 0.00 in 0.0 W/m2
19:03 38.5 °F 37.5 °F 29.93 in ENE 2.3 mph   96% 0.00 in 0.0 W/m2
19:08 38.5 °F 37.5 °F 29.93 in Calm     96% 0.00 in 0.0 W/m2
19:13 38.4 °F 37.4 °F 29.92 in ENE 4.6 mph 4.6 mph 96% 0.00 in 0.0 W/m2
19:18 38.3 °F 37.3 °F 29.92 in ENE 4.6 mph 4.6 mph 96% 0.00 in 0.0 W/m2
19:23 38.3 °F 37.3 °F 29.91 in ENE 7.0 mph 7.0 mph 96% 0.00 in 0.0 W/m2
19:28 38.3 °F 37.3 °F 29.92 in ENE 4.6 mph 4.6 mph 96% 0.00 in 0.0 W/m2
19:33 38.4 °F 37.4 °F 29.92 in ENE 4.6 mph 4.6 mph 96% 0.00 in 0.0 W/m2
19:38 38.4 °F 37.4 °F 29.92 in ENE 4.6 mph 4.6 mph 96% 0.00 in 0.0 W/m2
19:43 38.4 °F 37.4 °F 29.92 in ENE 3.5 mph   96% 0.00 in 0.0 W/m2
19:48 38.3 °F 37.3 °F 29.91 in ENE 3.5 mph   96% 0.00 in 0.0 W/m2
19:53 38.3 °F 37.3 °F 29.92 in Calm     96% 0.00 in 0.0 W/m2
19:58 38.3 °F 37.3 °F 29.91 in Calm     96% 0.00 in 0.0 W/m2
20:03 38.2 °F 37.2 °F 29.91 in Calm     96% 0.00 in 0.0 W/m2
20:08 38.2 °F 37.2 °F 29.90 in Calm     96% 0.00 in 0.0 W/m2
20:14 38.2 °F 37.2 °F 29.90 in Calm     96% 0.00 in 0.0 W/m2
20:19 38.0 °F 37.0 °F 29.90 in ENE 3.5 mph 3.5 mph 96% 0.00 in 0.0 W/m2
20:24 38.0 °F 37.0 °F 29.90 in Calm     96% 0.00 in 0.0 W/m2
20:29 38.0 °F 37.0 °F 29.90 in Calm     96% 0.00 in 0.0 W/m2
20:34 37.9 °F 36.9 °F 29.90 in Calm     96% 0.00 in 0.0 W/m2
20:39 38.0 °F 37.0 °F 29.90 in Calm     96% 0.00 in 0.0 W/m2
20:44 38.1 °F 37.1 °F 29.90 in Calm     96% 0.00 in 0.0 W/m2
20:49 38.2 °F 37.2 °F 29.90 in ENE 4.0 mph 4.0 mph 96% 0.00 in 0.0 W/m2
20:54 37.9 °F 36.9 °F 29.90 in ENE 4.6 mph 4.6 mph 96% 0.00 in 0.0 W/m2
20:59 37.8 °F 36.8 °F 29.90 in NE 6.9 mph 6.9 mph 96% 0.00 in 0.0 W/m2
21:04 37.8 °F 36.8 °F 29.90 in NNE 8.1 mph 8.1 mph 96% 0.00 in 0.0 W/m2
21:09 37.9 °F 36.9 °F 29.90 in NNE 8.1 mph 8.1 mph 96% 0.00 in 0.0 W/m2
21:14 37.9 °F 36.9 °F 29.90 in NNE 6.9 mph 6.9 mph 96% 0.00 in 0.0 W/m2
21:19 37.9 °F 36.9 °F 29.90 in North 6.9 mph 6.9 mph 96% 0.00 in 0.0 W/m2
21:24 37.9 °F 36.9 °F 29.90 in North 5.8 mph 5.8 mph 96% 0.00 in 0.0 W/m2
21:29 38.0 °F 37.0 °F 29.90 in North 6.0 mph 6.0 mph 96% 0.00 in 0.0 W/m2
21:34 38.1 °F 37.1 °F 29.90 in North 6.9 mph 6.9 mph 96% 0.00 in 0.0 W/m2
21:39 38.2 °F 37.2 °F 29.90 in North 5.8 mph 5.8 mph 96% 0.00 in 0.0 W/m2
21:44 38.2 °F 37.2 °F 29.90 in North 4.6 mph 4.6 mph 96% 0.00 in 0.0 W/m2
21:49 38.1 °F 37.3 °F 29.90 in North 6.0 mph 6.0 mph 97% 0.00 in 0.0 W/m2
21:54 38.2 °F 37.4 °F 29.90 in North 4.6 mph 4.6 mph 97% 0.00 in 0.0 W/m2
21:59 38.2 °F 37.4 °F 29.89 in North 6.9 mph 6.9 mph 97% 0.00 in 0.0 W/m2
22:04 38.3 °F 37.5 °F 29.90 in North 3.5 mph 3.5 mph 97% 0.00 in 0.0 W/m2
22:09 38.3 °F 37.5 °F 29.90 in North 4.6 mph 4.6 mph 97% 0.00 in 0.0 W/m2
22:14 38.4 °F 37.6 °F 29.90 in North 3.5 mph 3.5 mph 97% 0.00 in 0.0 W/m2
22:19 38.4 °F 37.6 °F 29.90 in North 3.5 mph 3.5 mph 97% 0.00 in 0.0 W/m2
22:24 38.4 °F 37.6 °F 29.89 in Calm     97% 0.00 in 0.0 W/m2
22:29 38.4 °F 37.4 °F 29.89 in Calm     96% 0.00 in 0.0 W/m2
22:34 38.4 °F 37.4 °F 29.89 in Calm     96% 0.00 in 0.0 W/m2
22:39 38.6 °F 37.6 °F 29.89 in North 3.5 mph 3.5 mph 96% 0.00 in 0.0 W/m2
22:44 38.6 °F 37.6 °F 29.89 in Calm     96% 0.00 in 0.0 W/m2
22:49 38.6 °F 37.6 °F 29.89 in Calm     96% 0.00 in 0.0 W/m2
22:54 38.6 °F 37.6 °F 29.89 in Calm     96% 0.00 in 0.0 W/m2
22:59 38.7 °F 37.9 °F 29.89 in Calm     97% 0.00 in 0.0 W/m2
23:04 38.7 °F 37.9 °F 29.88 in North 3.5 mph 3.5 mph 97% 0.00 in 0.0 W/m2
23:09 38.7 °F 37.9 °F 29.88 in North 1.2 mph   97% 0.00 in 0.0 W/m2
23:14 38.7 °F 37.7 °F 29.88 in North 4.0 mph 4.0 mph 96% 0.00 in 0.0 W/m2
23:19 38.7 °F 37.9 °F 29.88 in Calm     97% 0.00 in 0.0 W/m2
23:24 38.7 °F 37.7 °F 29.88 in Calm     96% 0.00 in 0.0 W/m2
23:29 38.8 °F 37.8 °F 29.88 in Calm     96% 0.00 in 0.0 W/m2
23:34 38.9 °F 38.1 °F 29.87 in Calm     97% 0.00 in 0.0 W/m2
23:39 38.8 °F 38.0 °F 29.87 in Calm     97% 0.00 in 0.0 W/m2
23:44 38.9 °F 38.1 °F 29.87 in Calm     97% 0.00 in 0.0 W/m2
23:49 38.9 °F 38.1 °F 29.87 in Calm     97% 0.00 in 0.0 W/m2
23:54 38.8 °F 38.0 °F 29.86 in Calm     97% 0.00 in 0.0 W/m2
23:59 38.7 °F 37.9 °F 29.86 in Calm     97% 0.00 in 0.0 W/m2
Bourbonnais, Illinois, USA
Compliments of Weather Underground - 2 mb